,

(GMT )
Resia Pass

Weather History for LIVE - January, 2013

Change the Weather History Date:

Tuesday, January 1, 2013

  Actual Average Record
Temperature  
Mean Temperature 28 °F -  
Max Temperature 33 °F 31 °F 46 °F (2016)
Min Temperature 23 °F 18 °F 3 °F (2002)
Degree Days  
Heating Degree Days 37    
Moisture  
Dew Point 17 °F    
Average Humidity 70    
Maximum Humidity 80    
Minimum Humidity 48    
Precipitation  
Precipitation 0.00 in - - ()
Sea Level Pressure  
Sea Level Pressure 29.93 in    
Wind  
Wind Speed 4 mph ()    
Max Wind Speed 9 mph    
Max Gust Speed -    
Averages and records for this station are not official NWS values.
T = Trace of Precipitation, MM = Missing Value Source: Averaged Metar Reports

Daily Weather History Graph

Daily Weather History Graph

Search for Another Location

Airport or City:

Trip Planner

Search our weather history database for the weather conditions in past years. The results will help you decide how hot, cold, wet, or windy it might be!

Date:

Astronomy

Jan. 01, 2013 Rise Set
Actual Time 8:03 AM CET 4:40 PM CET
Civil Twilight 7:28 AM CET 5:15 PM CET
Nautical Twilight 6:49 AM CET 5:53 PM CET
Astronomical Twilight 6:12 AM CET 6:30 PM CET
Moon 9:11 PM CET (1/1) 9:51 AM CET (1/1)
Length of Visible Light 9h 47m
Length of Day
8h 37m
Waning Gibbous, 85% of the Moon is Illuminated
Jan 1
Waning Gibbous
Jan 5
Last Quarter
Jan 11
New
Jan 19
First Quarter
Jan 27
Full

Hourly Weather History & Observations

Time (CET) Temp. Windchill Dew Point Humidity Pressure Visibility Wind Dir Wind Speed Gust Speed Precip Events Conditions
12:55 AM 23.0 °F 18.4 °F 14.0 °F 68% 30.01 in - SSE 3.5 mph - N/A   Clear
1:55 AM 23.0 °F 18.4 °F 14.0 °F 68% 30.01 in - ESE 3.5 mph - N/A   Clear
2:55 AM 23.0 °F 15.8 °F 14.0 °F 68% 29.98 in - South 5.8 mph - N/A   Clear
4:55 AM 23.0 °F - 15.8 °F 74% 29.95 in - Calm Calm - N/A   Clear
5:55 AM 23.0 °F - 14.0 °F 68% 29.98 in - Calm Calm - N/A   Clear
6:55 AM 23.0 °F - 15.8 °F 74% 29.95 in - Calm Calm - N/A   Clear
8:55 AM 23.0 °F 13.1 °F 15.8 °F 74% 29.92 in - South 9.2 mph - N/A   Clear
9:55 AM 23.0 °F 13.1 °F 15.8 °F 74% 29.92 in - South 9.2 mph - N/A   Clear
10:55 AM 24.8 °F 15.3 °F 17.6 °F 74% 29.92 in - SSW 9.2 mph - N/A   Clear
11:55 AM 24.8 °F 15.3 °F 17.6 °F 74% 29.92 in - SSW 9.2 mph - N/A   Clear
12:55 PM 32.0 °F 25.6 °F 15.8 °F 51% 29.89 in - South 6.9 mph - N/A   Clear
1:55 PM 33.8 °F 27.7 °F 15.8 °F 48% 29.92 in - SSW 6.9 mph - N/A   Clear
2:55 PM 30.2 °F 23.4 °F 15.8 °F 55% 29.92 in - South 6.9 mph - N/A   Clear
3:55 PM 30.2 °F 23.4 °F 14.0 °F 51% 29.92 in - South 6.9 mph - N/A   Clear
4:55 PM 26.6 °F 20.0 °F 17.6 °F 69% 29.86 in - South 5.8 mph - N/A   Clear
5:55 PM 26.6 °F 21.2 °F 17.6 °F 69% 29.86 in - South 4.6 mph - N/A   Clear
6:55 PM 24.8 °F 19.1 °F 17.6 °F 74% 29.86 in - NNE 4.6 mph - N/A   Clear
7:55 PM 24.8 °F 20.5 °F 19.4 °F 80% 29.92 in - NNW 3.5 mph - N/A   Clear
8:55 PM 24.8 °F - 19.4 °F 80% 29.92 in - Calm Calm - N/A   Clear
9:55 PM 24.8 °F 20.5 °F 19.4 °F 80% 29.92 in - NNE 3.5 mph - N/A   Clear
10:55 PM 24.8 °F 20.5 °F 19.4 °F 80% 29.92 in - North 3.5 mph - N/A   Clear
11:55 PM 24.8 °F 20.5 °F 19.4 °F 80% 29.92 in - North 3.5 mph - N/A   Clear